owner,sensor,date,latitude,longitude,relative_humidity,qcFlag 
TCOON,ioos:station:TCOON:146:1,2017-03-01T00:30:00Z,28.1324,-97.0345,92.2,1111122 
TCOON,ioos:station:TCOON:146:1,2017-03-01T01:30:00Z,28.1324,-97.0345,93.2,1111122 
TCOON,ioos:station:TCOON:146:1,2017-03-01T02:30:00Z,28.1324,-97.0345,93.5,1111122 
TCOON,ioos:station:TCOON:146:1,2017-03-01T03:30:00Z,28.1324,-97.0345,93.5,1111122 
TCOON,ioos:station:TCOON:146:1,2017-03-01T04:30:00Z,28.1324,-97.0345,94.3,1111122 
TCOON,ioos:station:TCOON:146:1,2017-03-01T05:30:00Z,28.1324,-97.0345,92.1,1111122 
TCOON,ioos:station:TCOON:146:1,2017-03-01T06:30:00Z,28.1324,-97.0345,91.2,1111122 
TCOON,ioos:station:TCOON:146:1,2017-03-01T07:30:00Z,28.1324,-97.0345,91.4,1111122 
TCOON,ioos:station:TCOON:146:1,2017-03-01T08:30:00Z,28.1324,-97.0345,93.8,1111122 
TCOON,ioos:station:TCOON:146:1,2017-03-01T09:30:00Z,28.1324,-97.0345,90.0,1111122 
TCOON,ioos:station:TCOON:146:1,2017-03-01T10:30:00Z,28.1324,-97.0345,86.5,1111122 
TCOON,ioos:station:TCOON:146:1,2017-03-01T11:30:00Z,28.1324,-97.0345,87.9,1111122 
TCOON,ioos:station:TCOON:146:1,2017-03-01T12:30:00Z,28.1324,-97.0345,90.4,1111122 
TCOON,ioos:station:TCOON:146:1,2017-03-01T13:30:00Z,28.1324,-97.0345,91.1,1111122 
TCOON,ioos:station:TCOON:146:1,2017-03-01T14:30:00Z,28.1324,-97.0345,90.8,1111122 
TCOON,ioos:station:TCOON:146:1,2017-03-01T15:30:00Z,28.1324,-97.0345,87.9,1111122 
TCOON,ioos:station:TCOON:146:1,2017-03-01T16:30:00Z,28.1324,-97.0345,85.3,1111122 
TCOON,ioos:station:TCOON:146:1,2017-03-01T17:30:00Z,28.1324,-97.0345,86.1,1111122 
TCOON,ioos:station:TCOON:146:1,2017-03-01T18:30:00Z,28.1324,-97.0345,85.1,1111122 
TCOON,ioos:station:TCOON:146:1,2017-03-01T19:30:00Z,28.1324,-97.0345,86.6,1111122 
TCOON,ioos:station:TCOON:146:1,2017-03-01T20:30:00Z,28.1324,-97.0345,81.4,1111122 
TCOON,ioos:station:TCOON:146:1,2017-03-01T21:30:00Z,28.1324,-97.0345,40.8,1111122 
TCOON,ioos:station:TCOON:146:1,2017-03-01T22:30:00Z,28.1324,-97.0345,41.6,1111122 
TCOON,ioos:station:TCOON:146:1,2017-03-02T00:30:00Z,28.1324,-97.0345,41.7,1111122 
TCOON,ioos:station:TCOON:146:1,2017-03-02T01:30:00Z,28.1324,-97.0345,45.5,1111122 
TCOON,ioos:station:TCOON:146:1,2017-03-02T02:30:00Z,28.1324,-97.0345,46.8,1111122 
TCOON,ioos:station:TCOON:146:1,2017-03-02T03:30:00Z,28.1324,-97.0345,48.6,1111122 
TCOON,ioos:station:TCOON:146:1,2017-03-02T04:30:00Z,28.1324,-97.0345,49.6,1111122 
TCOON,ioos:station:TCOON:146:1,2017-03-02T05:30:00Z,28.1324,-97.0345,47.6,1111122 
TCOON,ioos:station:TCOON:146:1,2017-03-02T06:30:00Z,28.1324,-97.0345,45.6,1111122 
TCOON,ioos:station:TCOON:146:1,2017-03-02T07:30:00Z,28.1324,-97.0345,45.3,1111122 
TCOON,ioos:station:TCOON:146:1,2017-03-02T08:30:00Z,28.1324,-97.0345,45.9,1111122 
TCOON,ioos:station:TCOON:146:1,2017-03-02T09:30:00Z,28.1324,-97.0345,46.6,1111122 
TCOON,ioos:station:TCOON:146:1,2017-03-02T10:30:00Z,28.1324,-97.0345,48.3,1111122 
TCOON,ioos:station:TCOON:146:1,2017-03-02T11:30:00Z,28.1324,-97.0345,50.6,1111122 
TCOON,ioos:station:TCOON:146:1,2017-03-02T12:30:00Z,28.1324,-97.0345,52.4,1111122 
TCOON,ioos:station:TCOON:146:1,2017-03-02T13:30:00Z,28.1324,-97.0345,52.4,1111122 
TCOON,ioos:station:TCOON:146:1,2017-03-02T14:30:00Z,28.1324,-97.0345,47.6,1111122 
TCOON,ioos:station:TCOON:146:1,2017-03-02T15:30:00Z,28.1324,-97.0345,36.1,1111122 
TCOON,ioos:station:TCOON:146:1,2017-03-02T16:30:00Z,28.1324,-97.0345,32.2,1111122 
TCOON,ioos:station:TCOON:146:1,2017-03-02T17:30:00Z,28.1324,-97.0345,30.3,1111122 
TCOON,ioos:station:TCOON:146:1,2017-03-02T18:30:00Z,28.1324,-97.0345,28.5,1111122 
TCOON,ioos:station:TCOON:146:1,2017-03-02T19:30:00Z,28.1324,-97.0345,26.7,1111122 
TCOON,ioos:station:TCOON:146:1,2017-03-02T20:30:00Z,28.1324,-97.0345,25.2,1111122 
TCOON,ioos:station:TCOON:146:1,2017-03-02T21:30:00Z,28.1324,-97.0345,38.6,1111122 
TCOON,ioos:station:TCOON:146:1,2017-03-02T22:30:00Z,28.1324,-97.0345,48.9,1111122 
TCOON,ioos:station:TCOON:146:1,2017-03-02T23:30:00Z,28.1324,-97.0345,50.7,1111122 
TCOON,ioos:station:TCOON:146:1,2017-03-03T00:30:00Z,28.1324,-97.0345,51.6,1111122 
TCOON,ioos:station:TCOON:146:1,2017-03-03T01:30:00Z,28.1324,-97.0345,52.4,1111122 
TCOON,ioos:station:TCOON:146:1,2017-03-03T02:30:00Z,28.1324,-97.0345,54.7,1111122 
TCOON,ioos:station:TCOON:146:1,2017-03-03T03:30:00Z,28.1324,-97.0345,56.0,1111122 
TCOON,ioos:station:TCOON:146:1,2017-03-03T04:30:00Z,28.1324,-97.0345,54.4,1111122 
TCOON,ioos:station:TCOON:146:1,2017-03-03T05:30:00Z,28.1324,-97.0345,44.0,1111122 
TCOON,ioos:station:TCOON:146:1,2017-03-03T06:30:00Z,28.1324,-97.0345,48.2,1111122 
TCOON,ioos:station:TCOON:146:1,2017-03-03T07:30:00Z,28.1324,-97.0345,50.2,1111122 
TCOON,ioos:station:TCOON:146:1,2017-03-03T08:30:00Z,28.1324,-97.0345,50.7,1111122 
TCOON,ioos:station:TCOON:146:1,2017-03-03T09:30:00Z,28.1324,-97.0345,50.7,1111122 
TCOON,ioos:station:TCOON:146:1,2017-03-03T10:30:00Z,28.1324,-97.0345,52.3,1111122 
TCOON,ioos:station:TCOON:146:1,2017-03-03T11:30:00Z,28.1324,-97.0345,55.3,1111122 
TCOON,ioos:station:TCOON:146:1,2017-03-03T12:30:00Z,28.1324,-97.0345,55.9,1111122 
TCOON,ioos:station:TCOON:146:1,2017-03-03T13:30:00Z,28.1324,-97.0345,59.9,1111122 
TCOON,ioos:station:TCOON:146:1,2017-03-03T14:30:00Z,28.1324,-97.0345,61.2,1111122 
TCOON,ioos:station:TCOON:146:1,2017-03-03T15:30:00Z,28.1324,-97.0345,60.4,1111122 
TCOON,ioos:station:TCOON:146:1,2017-03-03T16:30:00Z,28.1324,-97.0345,60.6,1111122 
TCOON,ioos:station:TCOON:146:1,2017-03-03T17:30:00Z,28.1324,-97.0345,52.8,1111122 
TCOON,ioos:station:TCOON:146:1,2017-03-03T18:30:00Z,28.1324,-97.0345,52.3,1111122 
TCOON,ioos:station:TCOON:146:1,2017-03-03T19:30:00Z,28.1324,-97.0345,54.0,1111122 
TCOON,ioos:station:TCOON:146:1,2017-03-03T20:30:00Z,28.1324,-97.0345,54.7,1111122 
TCOON,ioos:station:TCOON:146:1,2017-03-03T21:30:00Z,28.1324,-97.0345,55.4,1111122 
TCOON,ioos:station:TCOON:146:1,2017-03-03T22:30:00Z,28.1324,-97.0345,57.6,1111122 
TCOON,ioos:station:TCOON:146:1,2017-03-04T00:30:00Z,28.1324,-97.0345,72.7,1111122 
TCOON,ioos:station:TCOON:146:1,2017-03-04T01:30:00Z,28.1324,-97.0345,67.8,1111122 
TCOON,ioos:station:TCOON:146:1,2017-03-04T02:30:00Z,28.1324,-97.0345,67.1,1111122 
TCOON,ioos:station:TCOON:146:1,2017-03-04T03:30:00Z,28.1324,-97.0345,72.9,1111122 
TCOON,ioos:station:TCOON:146:1,2017-03-04T04:30:00Z,28.1324,-97.0345,72.2,1111122 
TCOON,ioos:station:TCOON:146:1,2017-03-04T05:30:00Z,28.1324,-97.0345,75.4,1111122 
TCOON,ioos:station:TCOON:146:1,2017-03-04T06:30:00Z,28.1324,-97.0345,76.5,1111122 
TCOON,ioos:station:TCOON:146:1,2017-03-04T07:30:00Z,28.1324,-97.0345,77.5,1111122 
TCOON,ioos:station:TCOON:146:1,2017-03-04T08:30:00Z,28.1324,-97.0345,80.1,1111122 
TCOON,ioos:station:TCOON:146:1,2017-03-04T09:30:00Z,28.1324,-97.0345,80.1,1111122 
TCOON,ioos:station:TCOON:146:1,2017-03-04T10:30:00Z,28.1324,-97.0345,80.0,1111122 
TCOON,ioos:station:TCOON:146:1,2017-03-04T11:30:00Z,28.1324,-97.0345,77.7,1111122 
TCOON,ioos:station:TCOON:146:1,2017-03-04T12:30:00Z,28.1324,-97.0345,78.5,1111122 
TCOON,ioos:station:TCOON:146:1,2017-03-04T13:30:00Z,28.1324,-97.0345,80.2,1111122 
TCOON,ioos:station:TCOON:146:1,2017-03-04T14:30:00Z,28.1324,-97.0345,77.8,1111122 
TCOON,ioos:station:TCOON:146:1,2017-03-04T15:30:00Z,28.1324,-97.0345,75.0,1111122 
TCOON,ioos:station:TCOON:146:1,2017-03-04T16:30:00Z,28.1324,-97.0345,73.0,1111122 
TCOON,ioos:station:TCOON:146:1,2017-03-04T17:30:00Z,28.1324,-97.0345,81.4,1111122 
TCOON,ioos:station:TCOON:146:1,2017-03-04T18:30:00Z,28.1324,-97.0345,84.3,1111122 
TCOON,ioos:station:TCOON:146:1,2017-03-04T19:30:00Z,28.1324,-97.0345,82.5,1111122 
TCOON,ioos:station:TCOON:146:1,2017-03-04T20:30:00Z,28.1324,-97.0345,79.5,1111122 
TCOON,ioos:station:TCOON:146:1,2017-03-04T21:30:00Z,28.1324,-97.0345,77.3,1111122 
TCOON,ioos:station:TCOON:146:1,2017-03-04T22:30:00Z,28.1324,-97.0345,78.9,1111122 
TCOON,ioos:station:TCOON:146:1,2017-03-04T23:30:00Z,28.1324,-97.0345,80.6,1111122 
TCOON,ioos:station:TCOON:146:1,2017-03-05T00:30:00Z,28.1324,-97.0345,83.7,1111122 
TCOON,ioos:station:TCOON:146:1,2017-03-05T01:30:00Z,28.1324,-97.0345,88.2,1111122 
TCOON,ioos:station:TCOON:146:1,2017-03-05T02:30:00Z,28.1324,-97.0345,90.4,1111122 
TCOON,ioos:station:TCOON:146:1,2017-03-05T03:30:00Z,28.1324,-97.0345,92.3,1111122 
TCOON,ioos:station:TCOON:146:1,2017-03-05T04:30:00Z,28.1324,-97.0345,90.4,1111122 
TCOON,ioos:station:TCOON:146:1,2017-03-05T05:30:00Z,28.1324,-97.0345,90.7,1111122 
TCOON,ioos:station:TCOON:146:1,2017-03-05T06:30:00Z,28.1324,-97.0345,92.0,1111122 
TCOON,ioos:station:TCOON:146:1,2017-03-05T07:30:00Z,28.1324,-97.0345,91.3,1111122 
TCOON,ioos:station:TCOON:146:1,2017-03-05T08:30:00Z,28.1324,-97.0345,92.4,1111122 
TCOON,ioos:station:TCOON:146:1,2017-03-05T09:30:00Z,28.1324,-97.0345,92.9,1111122 
TCOON,ioos:station:TCOON:146:1,2017-03-05T10:30:00Z,28.1324,-97.0345,92.9,1111122 
TCOON,ioos:station:TCOON:146:1,2017-03-05T11:30:00Z,28.1324,-97.0345,92.0,1111122 
TCOON,ioos:station:TCOON:146:1,2017-03-05T12:30:00Z,28.1324,-97.0345,93.4,1111122 
TCOON,ioos:station:TCOON:146:1,2017-03-05T13:30:00Z,28.1324,-97.0345,93.7,1111122 
TCOON,ioos:station:TCOON:146:1,2017-03-05T14:30:00Z,28.1324,-97.0345,93.0,1111122 
TCOON,ioos:station:TCOON:146:1,2017-03-05T15:30:00Z,28.1324,-97.0345,92.5,1111122 
TCOON,ioos:station:TCOON:146:1,2017-03-05T16:30:00Z,28.1324,-97.0345,90.5,1111122 
TCOON,ioos:station:TCOON:146:1,2017-03-05T17:30:00Z,28.1324,-97.0345,90.4,1111122 
TCOON,ioos:station:TCOON:146:1,2017-03-05T18:30:00Z,28.1324,-97.0345,82.5,1111122 
TCOON,ioos:station:TCOON:146:1,2017-03-05T19:30:00Z,28.1324,-97.0345,79.4,1111122 
TCOON,ioos:station:TCOON:146:1,2017-03-05T20:30:00Z,28.1324,-97.0345,82.7,1111122 
TCOON,ioos:station:TCOON:146:1,2017-03-05T21:30:00Z,28.1324,-97.0345,85.6,1111122 
TCOON,ioos:station:TCOON:146:1,2017-03-05T22:30:00Z,28.1324,-97.0345,87.7,1111122 
TCOON,ioos:station:TCOON:146:1,2017-03-05T23:30:00Z,28.1324,-97.0345,89.2,1111122 
TCOON,ioos:station:TCOON:146:1,2017-03-06T00:30:00Z,28.1324,-97.0345,91.6,1111122 
TCOON,ioos:station:TCOON:146:1,2017-03-06T01:30:00Z,28.1324,-97.0345,93.2,1111122 
TCOON,ioos:station:TCOON:146:1,2017-03-06T02:30:00Z,28.1324,-97.0345,92.8,1111122 
TCOON,ioos:station:TCOON:146:1,2017-03-06T03:30:00Z,28.1324,-97.0345,92.6,1111122 
TCOON,ioos:station:TCOON:146:1,2017-03-06T04:30:00Z,28.1324,-97.0345,92.3,1111122 
TCOON,ioos:station:TCOON:146:1,2017-03-06T05:30:00Z,28.1324,-97.0345,93.1,1111122 
TCOON,ioos:station:TCOON:146:1,2017-03-06T06:30:00Z,28.1324,-97.0345,93.3,1111122 
TCOON,ioos:station:TCOON:146:1,2017-03-06T07:30:00Z,28.1324,-97.0345,93.8,1111122 
TCOON,ioos:station:TCOON:146:1,2017-03-06T08:30:00Z,28.1324,-97.0345,94.8,1111122 
TCOON,ioos:station:TCOON:146:1,2017-03-06T09:30:00Z,28.1324,-97.0345,95.0,1111122 
TCOON,ioos:station:TCOON:146:1,2017-03-06T10:30:00Z,28.1324,-97.0345,95.4,1111122 
TCOON,ioos:station:TCOON:146:1,2017-03-06T11:30:00Z,28.1324,-97.0345,95.4,1111122 
TCOON,ioos:station:TCOON:146:1,2017-03-06T12:30:00Z,28.1324,-97.0345,95.2,1111122 
TCOON,ioos:station:TCOON:146:1,2017-03-06T13:30:00Z,28.1324,-97.0345,94.8,1111122 
TCOON,ioos:station:TCOON:146:1,2017-03-06T14:30:00Z,28.1324,-97.0345,94.7,1111122 
TCOON,ioos:station:TCOON:146:1,2017-03-06T15:30:00Z,28.1324,-97.0345,92.8,1111122 
TCOON,ioos:station:TCOON:146:1,2017-03-06T16:30:00Z,28.1324,-97.0345,90.7,1111122 
TCOON,ioos:station:TCOON:146:1,2017-03-06T17:30:00Z,28.1324,-97.0345,90.2,1111122 
TCOON,ioos:station:TCOON:146:1,2017-03-06T18:30:00Z,28.1324,-97.0345,90.2,1111122 
TCOON,ioos:station:TCOON:146:1,2017-03-06T19:30:00Z,28.1324,-97.0345,90.4,1111122 
TCOON,ioos:station:TCOON:146:1,2017-03-06T20:30:00Z,28.1324,-97.0345,89.7,1111122 
TCOON,ioos:station:TCOON:146:1,2017-03-06T21:30:00Z,28.1324,-97.0345,89.6,1111122 
TCOON,ioos:station:TCOON:146:1,2017-03-06T22:30:00Z,28.1324,-97.0345,89.5,1111122 
TCOON,ioos:station:TCOON:146:1,2017-03-06T23:30:00Z,28.1324,-97.0345,90.4,1111122 
TCOON,ioos:station:TCOON:146:1,2017-03-07T00:30:00Z,28.1324,-97.0345,92.0,1111122 
TCOON,ioos:station:TCOON:146:1,2017-03-07T01:30:00Z,28.1324,-97.0345,92.7,1111122 
TCOON,ioos:station:TCOON:146:1,2017-03-07T02:30:00Z,28.1324,-97.0345,93.1,1111122 
TCOON,ioos:station:TCOON:146:1,2017-03-07T03:30:00Z,28.1324,-97.0345,93.6,1111122 
TCOON,ioos:station:TCOON:146:1,2017-03-07T04:30:00Z,28.1324,-97.0345,94.2,1111122 
TCOON,ioos:station:TCOON:146:1,2017-03-07T05:30:00Z,28.1324,-97.0345,94.6,1111122 
TCOON,ioos:station:TCOON:146:1,2017-03-07T06:30:00Z,28.1324,-97.0345,94.8,1111122 
TCOON,ioos:station:TCOON:146:1,2017-03-07T07:30:00Z,28.1324,-97.0345,94.3,1111122 
TCOON,ioos:station:TCOON:146:1,2017-03-07T08:30:00Z,28.1324,-97.0345,94.2,1111122 
TCOON,ioos:station:TCOON:146:1,2017-03-07T09:30:00Z,28.1324,-97.0345,93.9,1111122 
TCOON,ioos:station:TCOON:146:1,2017-03-07T10:30:00Z,28.1324,-97.0345,93.8,1111122 
TCOON,ioos:station:TCOON:146:1,2017-03-07T11:30:00Z,28.1324,-97.0345,94.1,1111122 
TCOON,ioos:station:TCOON:146:1,2017-03-07T12:30:00Z,28.1324,-97.0345,94.5,1111122 
TCOON,ioos:station:TCOON:146:1,2017-03-07T13:30:00Z,28.1324,-97.0345,94.6,1111122 
TCOON,ioos:station:TCOON:146:1,2017-03-07T14:30:00Z,28.1324,-97.0345,93.9,1111122 
TCOON,ioos:station:TCOON:146:1,2017-03-07T15:30:00Z,28.1324,-97.0345,93.3,1111122 
TCOON,ioos:station:TCOON:146:1,2017-03-07T16:30:00Z,28.1324,-97.0345,92.0,1111122 
TCOON,ioos:station:TCOON:146:1,2017-03-07T17:30:00Z,28.1324,-97.0345,91.0,1111122 
TCOON,ioos:station:TCOON:146:1,2017-03-07T18:30:00Z,28.1324,-97.0345,90.4,1111122 
TCOON,ioos:station:TCOON:146:1,2017-03-07T19:30:00Z,28.1324,-97.0345,90.6,1111122 
TCOON,ioos:station:TCOON:146:1,2017-03-07T20:30:00Z,28.1324,-97.0345,89.1,1111122 
TCOON,ioos:station:TCOON:146:1,2017-03-07T21:30:00Z,28.1324,-97.0345,86.7,1111122 
TCOON,ioos:station:TCOON:146:1,2017-03-07T22:30:00Z,28.1324,-97.0345,85.8,1111122 
TCOON,ioos:station:TCOON:146:1,2017-03-08T00:30:00Z,28.1324,-97.0345,90.7,1111122 
TCOON,ioos:station:TCOON:146:1,2017-03-08T01:30:00Z,28.1324,-97.0345,91.7,1111122 
TCOON,ioos:station:TCOON:146:1,2017-03-08T02:30:00Z,28.1324,-97.0345,87.4,1111122 
TCOON,ioos:station:TCOON:146:1,2017-03-08T03:30:00Z,28.1324,-97.0345,82.7,1111122 
TCOON,ioos:station:TCOON:146:1,2017-03-08T04:30:00Z,28.1324,-97.0345,79.6,1111122 
TCOON,ioos:station:TCOON:146:1,2017-03-08T05:30:00Z,28.1324,-97.0345,79.2,1111122 
TCOON,ioos:station:TCOON:146:1,2017-03-08T06:30:00Z,28.1324,-97.0345,82.6,1111122 
TCOON,ioos:station:TCOON:146:1,2017-03-08T07:30:00Z,28.1324,-97.0345,79.6,1111122 
TCOON,ioos:station:TCOON:146:1,2017-03-08T08:30:00Z,28.1324,-97.0345,80.6,1111122 
TCOON,ioos:station:TCOON:146:1,2017-03-08T09:30:00Z,28.1324,-97.0345,82.7,1111122 
TCOON,ioos:station:TCOON:146:1,2017-03-08T10:30:00Z,28.1324,-97.0345,81.6,1111122 
TCOON,ioos:station:TCOON:146:1,2017-03-08T11:30:00Z,28.1324,-97.0345,81.0,1111122 
TCOON,ioos:station:TCOON:146:1,2017-03-08T12:30:00Z,28.1324,-97.0345,81.4,1111122 
TCOON,ioos:station:TCOON:146:1,2017-03-08T13:30:00Z,28.1324,-97.0345,83.0,1111122 
TCOON,ioos:station:TCOON:146:1,2017-03-08T14:30:00Z,28.1324,-97.0345,81.8,1111122 
TCOON,ioos:station:TCOON:146:1,2017-03-08T15:30:00Z,28.1324,-97.0345,81.0,1111122 
TCOON,ioos:station:TCOON:146:1,2017-03-08T16:30:00Z,28.1324,-97.0345,81.6,1111122 
TCOON,ioos:station:TCOON:146:1,2017-03-08T17:30:00Z,28.1324,-97.0345,84.1,1111122 
TCOON,ioos:station:TCOON:146:1,2017-03-08T18:30:00Z,28.1324,-97.0345,86.5,1111122 
TCOON,ioos:station:TCOON:146:1,2017-03-08T19:30:00Z,28.1324,-97.0345,89.5,1111122 
TCOON,ioos:station:TCOON:146:1,2017-03-08T20:30:00Z,28.1324,-97.0345,92.3,1111122 
TCOON,ioos:station:TCOON:146:1,2017-03-08T21:30:00Z,28.1324,-97.0345,90.2,1111122 
TCOON,ioos:station:TCOON:146:1,2017-03-08T22:30:00Z,28.1324,-97.0345,91.9,1111122 
TCOON,ioos:station:TCOON:146:1,2017-03-08T23:30:00Z,28.1324,-97.0345,86.6,1111122 
TCOON,ioos:station:TCOON:146:1,2017-03-09T00:30:00Z,28.1324,-97.0345,80.9,1111122 
TCOON,ioos:station:TCOON:146:1,2017-03-09T01:30:00Z,28.1324,-97.0345,83.8,1111122 
TCOON,ioos:station:TCOON:146:1,2017-03-09T02:30:00Z,28.1324,-97.0345,91.7,1111122 
TCOON,ioos:station:TCOON:146:1,2017-03-09T03:30:00Z,28.1324,-97.0345,93.9,1111122 
TCOON,ioos:station:TCOON:146:1,2017-03-09T04:30:00Z,28.1324,-97.0345,96.1,1111122 
TCOON,ioos:station:TCOON:146:1,2017-03-09T05:30:00Z,28.1324,-97.0345,96.5,1111122 
TCOON,ioos:station:TCOON:146:1,2017-03-09T06:30:00Z,28.1324,-97.0345,96.4,1111122 
TCOON,ioos:station:TCOON:146:1,2017-03-09T07:30:00Z,28.1324,-97.0345,96.3,1111122 
TCOON,ioos:station:TCOON:146:1,2017-03-09T08:30:00Z,28.1324,-97.0345,96.3,1111122 
TCOON,ioos:station:TCOON:146:1,2017-03-09T09:30:00Z,28.1324,-97.0345,96.5,1111122 
TCOON,ioos:station:TCOON:146:1,2017-03-09T10:30:00Z,28.1324,-97.0345,96.9,1111122 
TCOON,ioos:station:TCOON:146:1,2017-03-09T11:30:00Z,28.1324,-97.0345,97.1,1111122 
TCOON,ioos:station:TCOON:146:1,2017-03-09T12:30:00Z,28.1324,-97.0345,97.0,1111122 
TCOON,ioos:station:TCOON:146:1,2017-03-09T13:30:00Z,28.1324,-97.0345,96.8,1111122 
TCOON,ioos:station:TCOON:146:1,2017-03-09T14:30:00Z,28.1324,-97.0345,96.6,1111122 
TCOON,ioos:station:TCOON:146:1,2017-03-09T15:30:00Z,28.1324,-97.0345,95.8,1111122 
TCOON,ioos:station:TCOON:146:1,2017-03-09T16:30:00Z,28.1324,-97.0345,92.4,1111122 
TCOON,ioos:station:TCOON:146:1,2017-03-09T17:30:00Z,28.1324,-97.0345,91.3,1111122 
TCOON,ioos:station:TCOON:146:1,2017-03-09T18:30:00Z,28.1324,-97.0345,90.7,1111122 
TCOON,ioos:station:TCOON:146:1,2017-03-09T19:30:00Z,28.1324,-97.0345,90.4,1111122 
TCOON,ioos:station:TCOON:146:1,2017-03-09T20:30:00Z,28.1324,-97.0345,90.8,1111122 
TCOON,ioos:station:TCOON:146:1,2017-03-09T21:30:00Z,28.1324,-97.0345,90.9,1111122 
TCOON,ioos:station:TCOON:146:1,2017-03-09T22:30:00Z,28.1324,-97.0345,91.6,1111122 
TCOON,ioos:station:TCOON:146:1,2017-03-09T23:30:00Z,28.1324,-97.0345,91.6,1111122 
TCOON,ioos:station:TCOON:146:1,2017-03-10T00:30:00Z,28.1324,-97.0345,92.3,1111122 
TCOON,ioos:station:TCOON:146:1,2017-03-10T01:30:00Z,28.1324,-97.0345,92.4,1111122 
TCOON,ioos:station:TCOON:146:1,2017-03-10T02:30:00Z,28.1324,-97.0345,92.9,1111122 
TCOON,ioos:station:TCOON:146:1,2017-03-10T03:30:00Z,28.1324,-97.0345,93.2,1111122 
TCOON,ioos:station:TCOON:146:1,2017-03-10T04:30:00Z,28.1324,-97.0345,93.5,1111122 
TCOON,ioos:station:TCOON:146:1,2017-03-10T05:30:00Z,28.1324,-97.0345,93.5,1111122 
TCOON,ioos:station:TCOON:146:1,2017-03-10T07:30:00Z,28.1324,-97.0345,92.4,1111122 
TCOON,ioos:station:TCOON:146:1,2017-03-10T08:30:00Z,28.1324,-97.0345,92.4,1111122 
TCOON,ioos:station:TCOON:146:1,2017-03-10T09:30:00Z,28.1324,-97.0345,92.9,1111122 
TCOON,ioos:station:TCOON:146:1,2017-03-10T10:30:00Z,28.1324,-97.0345,93.8,1111122 
TCOON,ioos:station:TCOON:146:1,2017-03-10T11:30:00Z,28.1324,-97.0345,94.6,1111122 
TCOON,ioos:station:TCOON:146:1,2017-03-10T12:30:00Z,28.1324,-97.0345,95.3,1111122 
TCOON,ioos:station:TCOON:146:1,2017-03-10T13:30:00Z,28.1324,-97.0345,95.5,1111122 
TCOON,ioos:station:TCOON:146:1,2017-03-10T14:30:00Z,28.1324,-97.0345,95.1,1111122 
TCOON,ioos:station:TCOON:146:1,2017-03-10T15:30:00Z,28.1324,-97.0345,94.7,1111122 
TCOON,ioos:station:TCOON:146:1,2017-03-10T16:30:00Z,28.1324,-97.0345,93.2,1111122 
TCOON,ioos:station:TCOON:146:1,2017-03-10T17:30:00Z,28.1324,-97.0345,93.4,1111122 
TCOON,ioos:station:TCOON:146:1,2017-03-10T18:30:00Z,28.1324,-97.0345,90.0,1111122 
TCOON,ioos:station:TCOON:146:1,2017-03-10T19:30:00Z,28.1324,-97.0345,84.9,1111122 
TCOON,ioos:station:TCOON:146:1,2017-03-10T20:30:00Z,28.1324,-97.0345,87.2,1111122 
TCOON,ioos:station:TCOON:146:1,2017-03-10T21:30:00Z,28.1324,-97.0345,78.5,1111122 
TCOON,ioos:station:TCOON:146:1,2017-03-10T22:30:00Z,28.1324,-97.0345,80.0,1111122 
TCOON,ioos:station:TCOON:146:1,2017-03-10T23:30:00Z,28.1324,-97.0345,84.4,1111122 
TCOON,ioos:station:TCOON:146:1,2017-03-11T00:30:00Z,28.1324,-97.0345,84.3,1111122 
TCOON,ioos:station:TCOON:146:1,2017-03-11T01:30:00Z,28.1324,-97.0345,82.3,1111122 
TCOON,ioos:station:TCOON:146:1,2017-03-11T02:30:00Z,28.1324,-97.0345,87.3,1111122 
TCOON,ioos:station:TCOON:146:1,2017-03-11T05:30:00Z,28.1324,-97.0345,86.0,1111122 
TCOON,ioos:station:TCOON:146:1,2017-03-11T06:30:00Z,28.1324,-97.0345,86.8,1111122 
TCOON,ioos:station:TCOON:146:1,2017-03-11T07:30:00Z,28.1324,-97.0345,87.4,1111122 
TCOON,ioos:station:TCOON:146:1,2017-03-11T08:30:00Z,28.1324,-97.0345,88.9,1111122 
TCOON,ioos:station:TCOON:146:1,2017-03-11T09:30:00Z,28.1324,-97.0345,90.4,1111122 
TCOON,ioos:station:TCOON:146:1,2017-03-11T10:30:00Z,28.1324,-97.0345,85.1,1111122 
TCOON,ioos:station:TCOON:146:1,2017-03-11T11:30:00Z,28.1324,-97.0345,91.6,1111122 
TCOON,ioos:station:TCOON:146:1,2017-03-11T12:30:00Z,28.1324,-97.0345,94.4,1111122 
TCOON,ioos:station:TCOON:146:1,2017-03-11T13:30:00Z,28.1324,-97.0345,95.6,1111122 
TCOON,ioos:station:TCOON:146:1,2017-03-11T14:30:00Z,28.1324,-97.0345,95.4,1111122 
TCOON,ioos:station:TCOON:146:1,2017-03-11T15:30:00Z,28.1324,-97.0345,96.0,1111122 
TCOON,ioos:station:TCOON:146:1,2017-03-11T16:30:00Z,28.1324,-97.0345,95.6,1111122 
TCOON,ioos:station:TCOON:146:1,2017-03-11T17:30:00Z,28.1324,-97.0345,93.3,1111122 
TCOON,ioos:station:TCOON:146:1,2017-03-11T18:30:00Z,28.1324,-97.0345,89.6,1111122 
TCOON,ioos:station:TCOON:146:1,2017-03-11T19:30:00Z,28.1324,-97.0345,86.7,1111122 
TCOON,ioos:station:TCOON:146:1,2017-03-11T20:30:00Z,28.1324,-97.0345,86.2,1111122 
TCOON,ioos:station:TCOON:146:1,2017-03-11T21:30:00Z,28.1324,-97.0345,85.7,1111122 
TCOON,ioos:station:TCOON:146:1,2017-03-11T22:30:00Z,28.1324,-97.0345,86.4,1111122 
TCOON,ioos:station:TCOON:146:1,2017-03-11T23:30:00Z,28.1324,-97.0345,89.5,1111122 
TCOON,ioos:station:TCOON:146:1,2017-03-12T00:30:00Z,28.1324,-97.0345,89.8,1111122 
TCOON,ioos:station:TCOON:146:1,2017-03-12T01:30:00Z,28.1324,-97.0345,89.6,1111122 
TCOON,ioos:station:TCOON:146:1,2017-03-12T02:30:00Z,28.1324,-97.0345,91.5,1111122 
TCOON,ioos:station:TCOON:146:1,2017-03-12T03:30:00Z,28.1324,-97.0345,89.9,1111122 
TCOON,ioos:station:TCOON:146:1,2017-03-12T04:30:00Z,28.1324,-97.0345,91.6,1111122 
TCOON,ioos:station:TCOON:146:1,2017-03-12T05:30:00Z,28.1324,-97.0345,92.1,1111122 
TCOON,ioos:station:TCOON:146:1,2017-03-12T06:30:00Z,28.1324,-97.0345,92.2,1111122 
TCOON,ioos:station:TCOON:146:1,2017-03-12T07:30:00Z,28.1324,-97.0345,92.8,1111122 
TCOON,ioos:station:TCOON:146:1,2017-03-12T08:30:00Z,28.1324,-97.0345,93.4,1111122 
TCOON,ioos:station:TCOON:146:1,2017-03-12T09:30:00Z,28.1324,-97.0345,93.7,1111122 
TCOON,ioos:station:TCOON:146:1,2017-03-12T10:30:00Z,28.1324,-97.0345,92.8,1111122 
TCOON,ioos:station:TCOON:146:1,2017-03-12T11:30:00Z,28.1324,-97.0345,91.1,1111122 
TCOON,ioos:station:TCOON:146:1,2017-03-12T12:30:00Z,28.1324,-97.0345,91.0,1111122 
TCOON,ioos:station:TCOON:146:1,2017-03-12T13:30:00Z,28.1324,-97.0345,94.8,1111122 
TCOON,ioos:station:TCOON:146:1,2017-03-12T14:30:00Z,28.1324,-97.0345,91.9,1111122 
TCOON,ioos:station:TCOON:146:1,2017-03-12T15:30:00Z,28.1324,-97.0345,92.7,1111122 
TCOON,ioos:station:TCOON:146:1,2017-03-12T16:30:00Z,28.1324,-97.0345,90.5,1111122 
TCOON,ioos:station:TCOON:146:1,2017-03-12T17:30:00Z,28.1324,-97.0345,90.3,1111122 
TCOON,ioos:station:TCOON:146:1,2017-03-12T18:30:00Z,28.1324,-97.0345,88.5,1111122 
TCOON,ioos:station:TCOON:146:1,2017-03-12T19:30:00Z,28.1324,-97.0345,88.1,1111122 
TCOON,ioos:station:TCOON:146:1,2017-03-12T20:30:00Z,28.1324,-97.0345,86.4,1111122 
TCOON,ioos:station:TCOON:146:1,2017-03-12T21:30:00Z,28.1324,-97.0345,88.5,1111122 
TCOON,ioos:station:TCOON:146:1,2017-03-12T22:30:00Z,28.1324,-97.0345,89.0,1111122 
TCOON,ioos:station:TCOON:146:1,2017-03-12T23:30:00Z,28.1324,-97.0345,87.8,1111122 
TCOON,ioos:station:TCOON:146:1,2017-03-13T00:30:00Z,28.1324,-97.0345,89.0,1111122 
TCOON,ioos:station:TCOON:146:1,2017-03-13T01:30:00Z,28.1324,-97.0345,89.6,1111122 
TCOON,ioos:station:TCOON:146:1,2017-03-13T02:30:00Z,28.1324,-97.0345,90.5,1111122 
TCOON,ioos:station:TCOON:146:1,2017-03-13T03:30:00Z,28.1324,-97.0345,90.8,1111122 
TCOON,ioos:station:TCOON:146:1,2017-03-13T04:30:00Z,28.1324,-97.0345,90.3,1111122 
TCOON,ioos:station:TCOON:146:1,2017-03-13T05:30:00Z,28.1324,-97.0345,88.0,1111122 